Flag for U.S.A. Weather past 2 weeks in Lafayette, Louisiana, U.S.A.

Now
66 °F

Passing clouds.


Feels Like: 66 °F
Forecast: 37 / 55 °F
Wind: 9 mph from Southwest

Location: Lafayette Regional Airport

Current Time: Feb 1, 2015 at 8:17:19 PM

Latest Report: Feb 1, 2015 at 7:53 PM


Visibility: 10 mi

Pressure: 29.91 "Hg

Humidity: 93%

Dew point: 64 °F

Location of LafayetteLocation

Historic Weather in Lafayette — Graph

°F

Lafayette temperature yesterday

Maximum temperature yesterday: 64 °F (at 3:53 PM)
Minimum temperature yesterday: 42 °F (at 2:53 AM)
Average temperature yesterday: 54 °F

Past Weeks' High & Low Weather Summary

 TemperatureHumidityPressure
High83 °F (Jan 19, 3:53 PM)100% (Jan 17, 6:53 PM)30.42 "Hg (Jan 17, 6:53 PM)
Low34 °F (Jan 19, 7:53 AM)17% (Jan 18, 3:53 PM)29.87 "Hg (Feb 1, 2:53 PM)
Average54 °F70%30.13 "Hg
* Reported Jan 17 6:53 PM — Feb 1 6:53 PM, Lafayette, Weather by CustomWeather, © 2014

Note: Actual official high and low records may vary slightly from our data, if they occured in-between our weather recording intervals... More about our weather records

Advertising

Lafayette weather history for previous 24 hours

 ConditionsComfort  
Time TempWeatherWind HumidityBarometerVisibility
6:53 PM
Feb 1
67 °FPassing clouds.10 mph90%29.90 "Hg10 mi
5:53 PM68 °FPassing clouds.9 mph87%29.88 "Hg10 mi
4:53 PM71 °FScattered clouds.12 mph78%29.88 "Hg10 mi
3:53 PM71 °FBroken clouds.17 mph81%29.87 "Hg10 mi
2:53 PM71 °FPartly sunny.16 mph81%29.87 "Hg10 mi
1:53 PM70 °FBroken clouds.14 mph84%29.88 "Hg10 mi
12:53 PM70 °FCloudy.13 mph84%29.92 "Hg10 mi
11:53 AM67 °FRain. Fog.7 mph90%29.95 "Hg5 mi
10:53 AM66 °FMostly cloudy.9 mph90%29.97 "Hg10 mi
10:00 AM64 °FLow clouds.10 mph94%29.99 "Hg10 mi
8:53 AM62 °FMostly cloudy.3 mph96%29.98 "Hg8 mi
7:53 AM60 °FFog.No wind96%29.98 "Hg5 mi
6:53 AM60 °FPassing clouds.5 mph96%29.98 "Hg10 mi
5:53 AM58 °FPassing clouds.No wind97%29.97 "Hg10 mi
4:53 AM59 °FPartly cloudy.No wind90%29.97 "Hg10 mi
3:53 AM59 °FPassing clouds.5 mph87%29.97 "Hg10 mi
2:53 AM58 °FOvercast.9 mph87%29.99 "Hg10 mi
1:53 AM57 °FLight rain. Overcast.7 mph90%30.02 "Hg8 mi
12:53 AM58 °FLight rain. Overcast.5 mph81%30.05 "Hg10 mi
11:53 PM
Jan 31
57 °FPartly cloudy.6 mph81%30.07 "Hg10 mi
10:53 PM57 °FMostly cloudy.8 mph78%30.09 "Hg10 mi
9:53 PM57 °FMostly cloudy.8 mph78%30.11 "Hg10 mi
8:53 PM57 °FPassing clouds.7 mph74%30.11 "Hg10 mi
Weather by CustomWeather, © 2014

See weather overviewHow to use our weather pages